Zurück zum Katalog

COSMOS 2009

AktivMilitärLEO
NORAD 19903·PAYLOAD·🇷🇺 Russia

Gestartet Mar 24, 1989 von Plesetsk Cosmodrome

Loading…

Nächste Überflüge (nächste 24 Stunden)

TLE

AktuellSource: Space-Track

Epoche: Sep 14, 2026, 13:07 UTC

1 19903U 89025B   26257.54699610  .00000005  00000-0  12963-3 0  9997
2 19903  74.0142 343.5365 0041475 216.9618 154.1624 12.55950360718189

Verfolge COSMOS 2009 in Echtzeit mit AllMySat

Download on the App Store